Location: ??????????
(48.4699°N, 37.9573°E)
Time: 13:00:12
(UTC+00:00)

YAOGAN 1 - Pass Details

Date: 20 January 2021
Orbit: 618 x 620 km, 97.9° (Epoch: 27 February)

Event Time Altitude Azimuth Distance (km) Brightness Sun altitude
Rises 15:15:53 0° 139° (SE) 2,888 5.8 -11.1°
Reaches altitude 10° 15:18:14 10° 129° (SE) 1,987 4.8 -11.4°
Maximum altitude 15:22:04 32° 67° (ENE) 1,073 3.2 -12.1°
Drops below altitude 10° 15:25:56 10° 4° (N) 2,000 5.0 -12.7°
Sets 15:28:17 0° 355° (N) 2,911 5.9 -13.0°
